Flag for Austria Weather past 2 weeks in Amstetten, Lower Austria, Austria

Now
40 °F

Light rain. Low clouds.


Feels Like: 37 °F
Forecast: 37 / 43 °F
Wind: 3 mph from Southwest

Location: Linz / Hoersching-Flughafen

Current Time: Mar 31, 2015 at 7:25:24 AM

Latest Report: Mar 31, 2015 at 6:00 AM


Visibility: 7 mi

Pressure: 29.77 "Hg

Humidity: 90%

Dew point: 37 °F

Location of AmstettenLocation

Historic Weather in Amstetten — Graph

°F

Amstetten temperature yesterday

Maximum temperature yesterday: 51 °F (at 2:00 AM)
Minimum temperature yesterday: 40 °F (at 7:00 PM)
Average temperature yesterday: 45 °F

Past Weeks' High & Low Weather Summary

 TemperatureHumidityPressure
High60 °F (Mar 16, 2:00 PM)100% (Mar 24, 7:00 AM)30.35 "Hg (Mar 24, 7:00 AM)
Low28 °F (Mar 21, 7:00 AM)22% (Mar 19, 3:00 PM)29.50 "Hg (Mar 30, 4:00 AM)
Average45 °F67%30.03 "Hg
* Reported Mar 16 5:00 AM — Mar 31 6:00 AM, Amstetten, Weather by CustomWeather, © 2015

Note: Actual official high and low records may vary slightly from our data, if they occured in-between our weather recording intervals... More about our weather records

Advertising

Amstetten weather history for previous 24 hours

 ConditionsComfort  
Time TempWeatherWind HumidityBarometerVisibility
6:00 AM
Tue, Mar 31
40 °FLight rain. Low clouds.3 mph90%29.77 "Hg7 mi
5:00 AM41 °FLight rain. Overcast.N/A76%29.83 "Hg9 mi
4:00 AM40 °FOvercast.3 mph76%29.88 "Hg25 mi
3:00 AM40 °FOvercast.N/A80%29.91 "Hg25 mi
2:00 AM40 °FOvercast.3 mph75%29.93 "Hg31 mi
1:00 AM40 °FOvercast.7 mph74%29.95 "Hg31 mi
12:00 AM41 °FOvercast.8 mph74%29.95 "Hg31 mi
11:00 PM
Mon, Mar 30
41 °FOvercast.7 mph76%29.93 "Hg31 mi
10:00 PM40 °FOvercast.6 mph82%29.91 "Hg28 mi
9:00 PM41 °FOvercast.9 mph75%29.88 "Hg31 mi
8:00 PM43 °FOvercast.12 mph64%29.81 "Hg31 mi
7:00 PM40 °FRain showers. Overcast.8 mph82%29.79 "Hg31 mi
6:00 PM44 °FScattered clouds.9 mph72%29.72 "Hg25 mi
5:00 PM47 °FRain showers. Partly sunny.13 mph60%29.69 "Hg22 mi
4:00 PMN/APassing clouds.10 mphN/AN/A2 mi
3:00 PM47 °FOvercast.6 mph67%29.67 "Hg31 mi
2:00 PM45 °FOvercast.9 mph75%29.65 "Hg28 mi
1:00 PM45 °FPartly sunny.9 mph77%29.62 "Hg28 mi
12:00 PM45 °FOvercast.8 mph83%29.59 "Hg28 mi
11:00 AMN/APassing clouds.20 mphN/AN/A2 mi
10:00 AM44 °FRain showers. Low clouds.N/A93%29.54 "Hg9 mi
9:00 AM43 °FRain showers. Overcast.5 mph91%29.57 "Hg15 mi
8:00 AM43 °FRain showers. Overcast.6 mph89%29.58 "Hg11 mi
7:00 AM46 °FRain showers. Overcast.10 mph86%29.56 "Hg12 mi
Weather by CustomWeather, © 2015

See weather overviewHow to use our weather pages